When you browse on this site, cookies collect data to enhance your experience and personalize the content and advertising you see.
Visit our Privacy Policy to learn more. By continuing to use the site, you agree to this use of cookies and data.
  • In Hungary
  • List of Countries
  • For 7 days
  • Water Temperature
  • Satellite Maps
  • Weather Map
  • News
  • Weather Widgets
  • user-avatar
    Login

    Hourly Weather Actopan

    Today, 17 February, Sunday

    Time Temperature Precipitation Wind Pressure Humidity
    00:00 +27°C° 0 mm 2 mps 731 mmHg 70%
    01:00 +27°C° 0 mm 2 mps 730 mmHg 66%
    02:00 +27°C° 0 mm 2 mps 730 mmHg 61%
    03:00 +27°C° 0 mm 2 mps 730 mmHg 56%
    04:00 +27°C° 0 mm 2 mps 730 mmHg 55%
    05:00 +27°C° 0 mm 2 mps 730 mmHg 53%
    06:00 +26°C° 0 mm 2 mps 730 mmHg 49%
    07:00 +28°C° 0 mm 2 mps 731 mmHg 45%
    08:00 +30°C° 0 mm 1 mps 731 mmHg 41%
    09:00 +32°C° 0 mm 1 mps 732 mmHg 38%
    10:00 +36°C° 0 mm 2 mps 732 mmHg 34%
    11:00 +38°C° 0 mm 2 mps 732 mmHg 31%
    12:00 +40°C° 0 mm 2 mps 732 mmHg 28%
    13:00 +40°C° 0 mm 2 mps 731 mmHg 30%
    14:00 +40°C° 0 mm 2 mps 731 mmHg 31%
    15:00 +42°C° 0 mm 3 mps 730 mmHg 33%
    16:00 +39°C° 0 mm 2 mps 730 mmHg 41%
    17:00 +37°C° 0 mm 2 mps 730 mmHg 48%
    18:00 +34°C° 0 mm 1 mps 730 mmHg 56%
    19:00 +32°C° 0 mm 1 mps 731 mmHg 61%
    20:00 +31°C° 0 mm 1 mps 732 mmHg 67%
    21:00 +29°C° 0 mm 1 mps 733 mmHg 72%
    22:00 +29°C° 0 mm 1 mps 733 mmHg 71%
    23:00 +28°C° 0 mm 1 mps 734 mmHg 71%

    Tomorrow, 18 February, Monday

    Time Temperature Precipitation Wind Pressure Humidity
    00:00 +28°C° 0 mm 1 mps 734 mmHg 70%
    01:00 +27°C° 0 mm 1 mps 734 mmHg 70%
    02:00 +27°C° 0 mm 1 mps 734 mmHg 69%
    03:00 +26°C° 0 mm 1 mps 734 mmHg 69%
    04:00 +26°C° 0 mm 1 mps 734 mmHg 69%
    05:00 +25°C° 0 mm 1 mps 735 mmHg 69%
    06:00 +25°C° 0 mm 1 mps 735 mmHg 68%
    07:00 +26°C° 0 mm 1 mps 735 mmHg 65%
    08:00 +28°C° 0 mm 1 mps 736 mmHg 61%
    09:00 +29°C° 0 mm 1 mps 737 mmHg 58%
    10:00 +31°C° 0 mm 1 mps 737 mmHg 55%
    11:00 +32°C° 0 mm 2 mps 737 mmHg 52%
    12:00 +35°C° 0 mm 2 mps 737 mmHg 49%
    13:00 +34°C° 0 mm 3 mps 736 mmHg 52%
    14:00 +34°C° 0 mm 3 mps 736 mmHg 55%
    15:00 +33°C° 0 mm 3 mps 735 mmHg 58%
    16:00 +30°C° 0.1 mm 3 mps 735 mmHg 65%
    17:00 +29°C° 0.1 mm 2 mps 735 mmHg 72%
    18:00 +27°C° 0.1 mm 2 mps 735 mmHg 79%
    19:00 +27°C° 0 mm 2 mps 736 mmHg 82%
    20:00 +26°C° 0 mm 1 mps 736 mmHg 86%
    21:00 +25°C° 0 mm 1 mps 737 mmHg 89%
    22:00 +25°C° 0 mm 1 mps 737 mmHg 90%
    23:00 +25°C° 0 mm 1 mps 737 mmHg 91%

    Day after tomorrow, 19 February, Tuesday

    Time Temperature Precipitation Wind Pressure Humidity
    00:00 +25°C° 0 mm 1 mps 737 mmHg 92%
    01:00 +25°C° 0 mm 1 mps 736 mmHg 92%
    02:00 +25°C° 0 mm 1 mps 736 mmHg 93%
    03:00 +25°C° 0 mm 1 mps 736 mmHg 93%
    04:00 +24°C° 0.1 mm 1 mps 736 mmHg 94%
    05:00 +24°C° 0.1 mm 1 mps 736 mmHg 94%
    06:00 +24°C° 0.1 mm 1 mps 735 mmHg 95%
    07:00 +24°C° 0.1 mm 1 mps 736 mmHg 93%
    08:00 +25°C° 0.1 mm 1 mps 736 mmHg 90%
    09:00 +25°C° 0.1 mm 2 mps 737 mmHg 88%
    10:00 +26°C° 0 mm 2 mps 736 mmHg 83%
    11:00 +27°C° 0 mm 2 mps 736 mmHg 79%
    12:00 +28°C° 0 mm 3 mps 736 mmHg 74%
    13:00 +29°C° 0 mm 2 mps 734 mmHg 73%
    14:00 +29°C° 0 mm 2 mps 733 mmHg 72%
    15:00 +30°C° 0 mm 2 mps 732 mmHg 71%
    16:00 +29°C° 0 mm 2 mps 732 mmHg 74%
    17:00 +28°C° 0 mm 2 mps 732 mmHg 77%
    18:00 +28°C° 0 mm 2 mps 732 mmHg 81%
    19:00 +27°C° 0 mm 2 mps 732 mmHg 85%
    20:00 +26°C° 0 mm 2 mps 733 mmHg 89%
    21:00 +25°C° 0 mm 1 mps 733 mmHg 93%
    22:00 +25°C° 0 mm 1 mps 733 mmHg 89%
    23:00 +25°C° 0 mm 1 mps 733 mmHg 85%

    20 February, Wednesday

    Time Temperature Precipitation Wind Pressure Humidity
    00:00 +25°C° 0 mm 1 mps 733 mmHg 81%
    01:00 +25°C° 0 mm 1 mps 733 mmHg 79%
    02:00 +24°C° 0 mm 1 mps 732 mmHg 77%
    03:00 +24°C° 0 mm 1 mps 731 mmHg 74%
    04:00 +24°C° 0 mm 1 mps 731 mmHg 69%
    05:00 +24°C° 0 mm 1 mps 731 mmHg 64%
    06:00 +23°C° 0 mm 1 mps 731 mmHg 59%
    07:00 +26°C° 0 mm 1 mps 732 mmHg 53%
    08:00 +28°C° 0 mm 1 mps 733 mmHg 48%
    09:00 +28°C° 0 mm 0 mps 733 mmHg 42%
    10:00 +32°C° 0 mm 1 mps 733 mmHg 40%
    11:00 +35°C° 0 mm 2 mps 733 mmHg 37%
    12:00 +36°C° 0 mm 2 mps 733 mmHg 35%
    13:00 +36°C° 0 mm 2 mps 733 mmHg 37%
    14:00 +36°C° 0 mm 3 mps 732 mmHg 40%
    15:00 +35°C° 0 mm 3 mps 731 mmHg 43%
    16:00 +33°C° 0 mm 3 mps 731 mmHg 53%
    17:00 +30°C° 0 mm 2 mps 731 mmHg 63%
    18:00 +28°C° 0 mm 2 mps 731 mmHg 72%
    19:00 +27°C° 0 mm 1 mps 732 mmHg 79%
    20:00 +26°C° 0 mm 1 mps 733 mmHg 86%
    21:00 +23°C° 0 mm 0 mps 733 mmHg 93%
    22:00 +24°C° 0 mm 1 mps 734 mmHg 91%
    23:00 +24°C° 0 mm 1 mps 734 mmHg 90%

    21 February, Thursday

    Time Temperature Precipitation Wind Pressure Humidity
    00:00 +24°C° 0 mm 1 mps 734 mmHg 88%
    01:00 +24°C° 0 mm 1 mps 734 mmHg 87%
    02:00 +23°C° 0 mm 1 mps 733 mmHg 86%
    03:00 +23°C° 0 mm 1 mps 733 mmHg 85%
    04:00 +23°C° 0 mm 1 mps 733 mmHg 83%
    05:00 +23°C° 0 mm 1 mps 733 mmHg 81%
    06:00 +23°C° 0 mm 1 mps 734 mmHg 79%
    07:00 +24°C° 0 mm 1 mps 734 mmHg 75%
    08:00 +26°C° 0 mm 1 mps 735 mmHg 72%
    09:00 +27°C° 0 mm 1 mps 736 mmHg 68%
    10:00 +29°C° 0 mm 1 mps 735 mmHg 64%
    11:00 +30°C° 0 mm 2 mps 735 mmHg 61%
    12:00 +31°C° 0 mm 2 mps 735 mmHg 57%
    13:00 +31°C° 0 mm 2 mps 734 mmHg 58%
    14:00 +31°C° 0 mm 3 mps 733 mmHg 60%
    15:00 +31°C° 0 mm 3 mps 732 mmHg 61%
    16:00 +30°C° 0 mm 2 mps 732 mmHg 68%
    17:00 +28°C° 0 mm 2 mps 732 mmHg 74%
    18:00 +27°C° 0 mm 2 mps 732 mmHg 81%
    19:00 +26°C° 0 mm 1 mps 733 mmHg 85%
    20:00 +25°C° 0 mm 1 mps 733 mmHg 89%
    21:00 +23°C° 0 mm 0 mps 734 mmHg 93%
    22:00 +22°C° 0 mm 0 mps 734 mmHg 91%
    23:00 +24°C° 0 mm 1 mps 734 mmHg 89%

    22 February, Friday

    Time Temperature Precipitation Wind Pressure Humidity
    00:00 +24°C° 0 mm 1 mps 734 mmHg 87%
    01:00 +24°C° 0 mm 1 mps 734 mmHg 85%
    02:00 +23°C° 0 mm 1 mps 734 mmHg 82%
    03:00 +23°C° 0 mm 1 mps 734 mmHg 79%
    04:00 +23°C° 0 mm 1 mps 734 mmHg 75%
    05:00 +23°C° 0 mm 1 mps 734 mmHg 71%
    06:00 +23°C° 0 mm 1 mps 735 mmHg 67%
    07:00 +25°C° 0 mm 1 mps 735 mmHg 65%
    08:00 +27°C° 0 mm 1 mps 736 mmHg 63%
    09:00 +28°C° 0 mm 1 mps 736 mmHg 61%
    10:00 +30°C° 0 mm 1 mps 736 mmHg 55%
    11:00 +32°C° 0 mm 2 mps 736 mmHg 49%
    12:00 +34°C° 0 mm 2 mps 736 mmHg 43%
    13:00 +34°C° 0 mm 2 mps 735 mmHg 44%
    14:00 +34°C° 0 mm 3 mps 734 mmHg 46%
    15:00 +34°C° 0 mm 3 mps 733 mmHg 47%
    16:00 +32°C° 0 mm 2 mps 733 mmHg 53%
    17:00 +30°C° 0 mm 2 mps 733 mmHg 60%
    18:00 +29°C° 0 mm 1 mps 733 mmHg 66%
    19:00 +27°C° 0.1 mm 1 mps 734 mmHg 73%
    20:00 +26°C° 0.1 mm 1 mps 734 mmHg 79%
    21:00 +25°C° 0.1 mm 1 mps 735 mmHg 86%
    22:00 +25°C° 0 mm 1 mps 735 mmHg 84%
    23:00 +25°C° 0 mm 1 mps 735 mmHg 81%
    Show more